Cherokee Lake Weather Center

Moon Phase Calendar



Cherokee Lake Water Level
Online Cameras

 


      

Current Conditions in Morristown
3/2/2024 10:05:50 PM

48°F
Feels Like 48
Clouds
Humidity
94%
Pressure
30.12"
Wind
0
Dew Point
46°F
UV Index
0/10 (Low)
Visibility
6 mi

Hourly Forecast

Date & Time Sat, Mar 2
10:00 PM
Sat, Mar 2
11:00 PM
Sun, Mar 3
12:00 AM
Sun, Mar 3
1:00 AM
Sun, Mar 3
2:00 AM
Sun, Mar 3
3:00 AM
Sun, Mar 3
4:00 AM
Sun, Mar 3
5:00 AM
Sun, Mar 3
6:00 AM
Sun, Mar 3
7:00 AM
Sun, Mar 3
8:00 AM
Sun, Mar 3
9:00 AM
Sun, Mar 3
10:00 AM
Sun, Mar 3
11:00 AM
Sun, Mar 3
12:00 PM
Sun, Mar 3
1:00 PM
Sun, Mar 3
2:00 PM
Sun, Mar 3
3:00 PM
Sun, Mar 3
4:00 PM
Sun, Mar 3
5:00 PM
Sun, Mar 3
6:00 PM
Sun, Mar 3
7:00 PM
Sun, Mar 3
8:00 PM
Sun, Mar 3
9:00 PM
Sun, Mar 3
10:00 PM
Sun, Mar 3
11:00 PM
Mon, Mar 4
12:00 AM
Mon, Mar 4
1:00 AM
Mon, Mar 4
2:00 AM
Mon, Mar 4
3:00 AM
Mon, Mar 4
4:00 AM
Mon, Mar 4
5:00 AM
Mon, Mar 4
6:00 AM
Mon, Mar 4
7:00 AM
Mon, Mar 4
8:00 AM
Mon, Mar 4
9:00 AM
Mon, Mar 4
10:00 AM
Mon, Mar 4
11:00 AM
Mon, Mar 4
12:00 PM
Mon, Mar 4
1:00 PM
Mon, Mar 4
2:00 PM
Mon, Mar 4
3:00 PM
Mon, Mar 4
4:00 PM
Mon, Mar 4
5:00 PM
Mon, Mar 4
6:00 PM
Mon, Mar 4
7:00 PM
Mon, Mar 4
8:00 PM
Mon, Mar 4
9:00 PM
Condition
Clouds

Clouds

Clouds

Clouds

Clear

Clear

Clear

Clear

Clear

Clear

Clear

Clear

Clear

Clouds

Clouds

Clouds

Clouds

Clouds

Clouds

Clouds

Clouds

Clouds

Clouds

Clouds

Clouds

Clouds

Clouds

Clouds

Clouds

Clouds

Clouds

Clouds

Clouds

Clouds

Clouds

Clouds

Clouds

Clouds

Clouds

Clouds

Clouds

Clouds

Clouds

Clouds

Clouds

Clouds

Clouds

Clouds
Temperature 48°F48°F48°F48°F46°F45°F44°F44°F43°F43°F46°F51°F55°F59°F63°F65°F67°F67°F67°F65°F60°F56°F54°F53°F52°F52°F51°F50°F49°F49°F49°F50°F51°F51°F52°F54°F57°F60°F64°F67°F70°F71°F70°F69°F63°F59°F58°F57°F
Feels Like 48°F48°F48°F48°F46°F45°F44°F44°F43°F43°F46°F50°F54°F58°F62°F64°F65°F66°F65°F64°F59°F54°F53°F52°F51°F50°F49°F49°F48°F47°F47°F49°F50°F50°F50°F53°F55°F59°F63°F66°F69°F70°F69°F68°F62°F58°F57°F55°F
Cloudiness 20%35%48%58%4%0%0%0%1%2%5%5%6%15%26%36%78%53%54%61%63%68%95%82%75%78%81%82%73%85%90%93%94%95%100%99%99%99%97%91%27%20%15%13%12%17%49%48%
Visibility 6 mi6 mi6 mi6 mi6 mi6 mi6 mi6 mi6 mi6 mi6 mi6 mi6 mi6 mi6 mi6 mi6 mi6 mi6 mi6 mi6 mi6 mi6 mi6 mi6 mi6 mi6 mi6 mi6 mi6 mi6 mi6 mi6 mi6 mi6 mi6 mi6 mi6 mi6 mi6 mi6 mi6 mi6 mi6 mi6 mi6 mi6 mi6 mi
Precipitation 0%0%0%0%0%0%0%0%0%0%0%0%0%0%0%0%0%0%0%0%0%0%0%0%0%0%0%0%0%0%0%0%0%0%0%0%0%0%0%0%0%0%0%0%0%0%0%0%
Humidity 94%93%92%93%94%95%95%95%96%96%95%86%79%70%61%54%50%48%49%56%65%70%72%75%78%80%83%86%88%90%90%86%84%85%85%81%75%67%60%53%48%45%45%53%61%64%66%70%
Dew Point 46°F46°F46°F46°F44°F44°F43°F43°F43°F42°F45°F47°F49°F50°F50°F49°F48°F47°F47°F50°F49°F46°F46°F46°F46°F46°F46°F46°F46°F46°F46°F47°F47°F47°F48°F48°F49°F50°F50°F50°F50°F49°F49°F52°F50°F47°F47°F47°F
Pressure 30.12"30.12"30.12"30.15"30.18"30.15"30.15"30.15"30.18"30.21"30.21"30.21"30.18"30.18"30.15"30.12"30.09"30.09"30.09"30.09"30.09"30.09"30.12"30.12"30.15"30.15"30.15"30.18"30.18"30.18"30.18"30.21"30.21"30.21"30.21"30.21"30.21"30.18"30.18"30.12"30.09"30.09"30.06"30.06"30.06"30.09"30.09"30.09"
Wind Speed 1.3 mph0.6 mph0.7 mph0.2 mph0.6 mph0.5 mph0.3 mph1.3 mph1.3 mph1.4 mph1.8 mph2 mph2.6 mph2.4 mph2 mph2.3 mph3.4 mph3.8 mph3.8 mph3.1 mph2.5 mph0.6 mph0.4 mph0.4 mph0.8 mph2.5 mph3 mph3.6 mph4 mph4.6 mph4.1 mph4.7 mph5.4 mph5.3 mph4.7 mph5 mph6.2 mph6.5 mph6.2 mph5.4 mph5.4 mph4.5 mph3.8 mph3 mph2.5 mph2.5 mph2.5 mph2.5 mph
Wind
Direction
233°
SW
251°
WSW
188°
S
198°
SSW
172°
S
193°
SSW
337°
NNW
58°
ENE
80°
E
79°
E
78°
ENE
99°
E
103°
ESE
125°
SE
150°
SSE
195°
SSW
213°
SSW
233°
SW
245°
WSW
254°
WSW
268°
W
319°
NW
54°
NE
305°
NW
122°
ESE
97°
E
97°
E
93°
E
77°
ENE
75°
ENE
65°
ENE
55°
NE
73°
ENE
81°
E
83°
E
83°
E
83°
E
80°
E
85°
E
94°
E
106°
ESE
116°
ESE
110°
ESE
99°
E
86°
E
72°
ENE
100°
E
130°
SE

Daily Forecast

Date High Low Precip. Humidity
Today
Mar 2

Rain
56 °F
41 °F
97%
86%
Sunday
Mar 3

Clouds
67 °F
43 °F
0%
61%
Monday
Mar 4

Clouds
71 °F
49 °F
0%
60%
Tuesday
Mar 5

Clouds
68 °F
48 °F
0%
57%
Wednesday
Mar 6

Rain
58 °F
49 °F
100%
88%
Thursday
Mar 7

Clouds
58 °F
40 °F
28%
47%
Friday
Mar 8

Rain
50 °F
43 °F
100%
86%
Saturday
Mar 9

Rain
56 °F
45 °F
100%
82%
Sunday
Mar 10

Snow
44 °F
34 °F
64%
66%
Monday
Mar 11

Clouds
55 °F
30 °F
0%
42%
Tuesday
Mar 12

Clear
62 °F
36 °F
0%
44%
Wednesday
Mar 13

Clouds
67 °F
46 °F
0%
57%
Thursday
Mar 14

Clouds
69 °F
53 °F
0%
55%
Friday
Mar 15

Rain
71 °F
53 °F
44%
56%
Saturday
Mar 16

Clouds
53 °F
35 °F
0%
44%
Sunday
Mar 17

Clouds
43 °F
31 °F
16%
58%

Temperature 8-14 Day Outlook



Precipitation 8-14 Day Outlook




Quick Links
Cherokee Lake News
Cherokee Lake Photos
Cherokee Lake Videos




About Us
Contact Us
Site Map
Search Site
Advertise With Us
   
www.CherokeeLake.info
THE CHEROKEE LAKE WEBSITE

Copyright 2024, Lakes Online
Privacy    |    Legal